| time (UTC) | temp F | wind direction | speed MPH | gust MPH | rain 1hr in | rain 24hr in | rain mn in | humidity % | barometer mb |
| 20260905182228 | 50 | 300 | 20.0 | 0.0 | 0.00 | 0.00 | 0.00 | 76 | |
| 20260905172305 | 50 | 310 | 18.0 | 31.0 | 0.00 | 0.00 | 0.00 | 71 | |
| 20260905162632 | 55 | 300 | 20.0 | 0.0 | 0.00 | 0.00 | 0.00 | 66 | |
| 20260905152323 | 52 | 300 | 18.0 | 0.0 | 0.00 | 0.00 | 0.00 | 76 | |
| 20260905142109 | 54 | 290 | 16.0 | 0.0 | 0.00 | 0.00 | 0.00 | 76 | |
| 20260905132417 | 54 | 290 | 12.0 | 0.0 | 0.00 | 0.00 | 0.00 | 87 | |
| 20260905122308 | 52 | 280 | 14.0 | 0.0 | 0.00 | 0.00 | 0.00 | 93 | |
| 20260905112319 | 50 | 280 | 16.0 | 0.0 | 0.00 | 0.00 | 0.00 | 93 | |
| 20260905102653 | 50 | 280 | 18.0 | 0.0 | 0.00 | 0.00 | 0.00 | 93 | |
| 20260905092259 | 48 | 280 | 18.0 | 0.0 | 0.00 | 0.00 | 0.00 | 99 | |
| 20260905082251 | 46 | 280 | 9.0 | 0.0 | 0.00 | 0.00 | 0.00 | 99 | |
| 20260905072551 | 46 | 300 | 16.0 | 0.0 | 0.00 | 0.00 | 0.00 | 99 | |
| 20260905062253 | 46 | 300 | 16.0 | 0.0 | 0.00 | 0.00 | 0.00 | 99 | |
| 20260905052248 | 48 | 300 | 20.0 | 31.0 | 0.00 | 0.00 | 0.00 | 93 | |
| 20260905042652 | 50 | 320 | 14.0 | 0.0 | 0.00 | 0.00 | 0.00 | 93 | |
| 20260905032251 | 52 | 340 | 18.0 | 0.0 | 0.00 | 0.00 | 0.00 | 81 | |
| 20260905022249 | 50 | 360 | 22.0 | 33.0 | 0.00 | 0.00 | 0.00 | 93 | |
| 20260905012608 | 52 | 40 | 12.0 | 0.0 | 0.00 | 0.00 | 0.00 | 93 | |
| 20260905002306 | 55 | 300 | 14.0 | 0.0 | 0.00 | 0.00 | 0.00 | 82 | |
| 20260904232337 | 63 | 270 | 9.0 | 29.0 | 0.00 | 0.00 | 0.00 | 63 | |
| 20260904222706 | 63 | 270 | 9.0 | 20.0 | 0.00 | 0.00 | 0.00 | 63 | |
| 20260904212249 | 63 | 280 | 7.0 | 18.0 | 0.00 | 0.00 | 0.00 | 59 | |
| 20260904202248 | 63 | 360 | 9.0 | 22.0 | 0.00 | 0.00 | 0.00 | 63 | |
| 20260904192538 | 63 | 310 | 9.0 | 0.0 | 0.00 | 0.00 | 0.00 | 63 |